Starlink 1502

operational
NORAD ID: 45764 Int'l Des: 2020-038 Owner: SPXS Country: US Constellation: starlink
LEOCIRCULARSTARLINK_TYPE

About Starlink 1502

Description loading...

Live Position

Loading 3D Globe...

Upcoming Passes

Altitude History

Altitude vs Time

uPlot chart will show altitude changes over time

Two-Line Element Set

1 45764U 20038AL 25306.50041764 .00000343 00000-0 41908-4 0 9998
2 45764 53.0565 67.5912 0001207 88.4636 271.6491 15.06400915297310
Epoch: Nov 2, 2025 • Age: 21 hours

Current Status

Altitude 549.9 km
Velocity 7.59 km/s
Sub-Earth Point 39.02°N, 75.97°W
Launch Date Jun 13, 2020
Age 5.3 years
Type internet

Technical Details

Classification Payload
Mass 260.00 kg
Dry Mass 248.00 kg
Total Mass 260.00 kg
Length 0.20 m
Diameter 2.80 m
Span 9.00 m
Shape Box + pan
Manufacturer SPXS
Bus Type Starlink
Phase Status In Orbit
Owner/State SPXS/US

Large Constellations

Loading constellations...